"2020/01/01", 8.7, 9.0, 8.6
"2020/01/02", 8.5, 8.7, 8.3
"2020/01/03", 8.4, 8.6, 8.2
"2020/01/04", 8.4, 8.5, 8.3
"2020/01/05", 8.3, 8.4, 8.1
"2020/01/06", 8.1, 8.3, 7.9
"2020/01/07", 7.9, 8.3, 7.8
"2020/01/08", 7.7, 7.8, 7.7
"2020/01/09", 7.8, 8.1, 7.7
"2020/01/10", 8.1, 8.2, 8.0
"2020/01/11", 7.9, 8.1, 7.8
"2020/01/12", 7.8, 7.9, 7.8
"2020/01/13", 7.9, 8.2, 7.7
"2020/01/14", 8.2, 8.4, 8.1
"2020/01/15", 8.5, 8.5, 8.4
"2020/01/16", 8.2, 8.5, 8.0
"2020/01/17", 8.1, 8.3, 8.0
"2020/01/18", 7.8, 8.1, 7.4
"2020/01/19", 7.2, 7.5, 7.0
"2020/01/20", 7.6, 7.8, 7.4
"2020/01/21", 7.9, 8.1, 7.7
"2020/01/22", 7.7, 8.0, 7.5
"2020/01/23", 7.4, 7.5, 7.3
"2020/01/24", 7.5, 7.8, 7.4
"2020/01/25", 7.8, 7.9, 7.7
"2020/01/26", 7.7, 7.8, 7.6
"2020/01/27", 7.3, 7.6, 7.1
"2020/01/28", 7.0, 7.2, 6.9
"2020/01/29", 7.5, 7.8, 7.2
"2020/01/30", 7.9, 8.0, 7.8
"2020/01/31", 8.1, 8.3, 7.9
"2020/02/01", 8.1, 8.3, 7.9
"2020/02/02", 8.1, 8.2, 8.0
"2020/02/03", 8.2, 8.2, 8.1
"2020/02/04", 8.2, 8.3, 8.1
"2020/02/05", 8.3, 8.5, 8.1
"2020/02/06", 8.0, 8.5, 7.4
"2020/02/07", 6.9, 7.4, 6.6
"2020/02/08", 7.3, 7.6, 7.2
"2020/02/09", 7.3, 7.5, 7.1
"2020/02/10", 7.1, 7.4, 6.9
"2020/02/11", 7.2, 7.4, 7.0
"2020/02/12", 7.4, 7.5, 7.3
"2020/02/13", 7.7, 8.0, 7.5
"2020/02/14", 8.1, 8.3, 7.9
"2020/02/15", 8.1, 8.2, 8.0
"2020/02/16", 8.1, 8.3, 8.0
"2020/02/17", 8.5, 8.8, 8.3
"2020/02/18", 8.5, 8.8, 8.3
"2020/02/19", 8.3, 8.7, 8.1
"2020/02/20", 8.8, 9.2, 8.6
"2020/02/21", 9.1, 9.2, 9.0
"2020/02/22", 9.2, 9.5, 9.0
"2020/02/23", 9.3, 9.5, 9.1
"2020/02/24", 8.8, 9.2, 8.5
"2020/02/25", 9.0, 9.1, 9.0
"2020/02/26", 9.2, 9.2, 9.1
"2020/02/27", 8.9, 9.1, 8.7
"2020/02/28", 8.6, 9.0, 8.3
"2020/02/29", 9.0, 9.1, 8.8
"2020/03/01", 9.3, 9.6, 9.1
"2020/03/02", 9.5, 9.6, 9.4
"2020/03/03", 9.4, 9.7, 9.2
"2020/03/04", 9.6, 9.7, 9.5
"2020/03/05", 9.6, 9.8, 9.5
"2020/03/06", 9.4, 9.7, 9.2
"2020/03/07", 9.6, 9.7, 9.5
"2020/03/08", 9.4, 9.6, 9.2
"2020/03/09", 9.4, 9.9, 9.2
"2020/03/10",10.1,10.3, 9.9
"2020/03/11",10.6,11.0,10.3
"2020/03/12",11.0,11.2,10.8
"2020/03/13",11.0,11.1,11.0
"2020/03/14",10.7,11.0,10.0
"2020/03/15", 9.8,10.3, 9.5
"2020/03/16",10.3,10.6,10.1
"2020/03/17",10.1,10.4,10.0
"2020/03/18",10.3,10.5,10.1
"2020/03/19",10.6,11.3,10.4
"2020/03/20",11.4,11.8,11.2
"2020/03/21",11.6,11.8,11.5
"2020/03/22",11.7,12.0,11.5
"2020/03/23",11.9,12.0,11.8
"2020/03/24",11.7,11.9,11.5
"2020/03/25",11.3,11.6,11.0
"2020/03/26",11.9,12.4,11.6
"2020/03/27",12.3,13.0,11.9
"2020/03/28",13.1,13.2,12.7
"2020/03/29",11.8,12.6,11.1
"2020/03/30",11.0,11.5,10.7
"2020/03/31",11.5,11.6,11.4
"2020/04/01",11.7,12.0,11.6
"2020/04/02",12.2,12.6,12.0
"2020/04/03",12.6,12.8,12.3
"2020/04/04",12.7,13.0,12.6
"2020/04/05",12.7,13.0,12.4
"2020/04/06",12.4,12.8,11.9
"2020/04/07",12.7,13.0,12.5
"2020/04/08",13.0,13.4,12.7
"2020/04/09"," *"," *"," *"
"2020/04/10"," *"," *"," *"
"2020/04/11"," *"," *"," *"
"2020/04/12"," *"," *"," *"
"2020/04/13"," *"," *"," *"
"2020/04/14",12.4,12.7,12.1
"2020/04/15",12.6,12.7,12.5
"2020/04/16",12.8,12.8,12.7
"2020/04/17",12.6,13.0,12.3
"2020/04/18",12.8,13.0,12.8
"2020/04/19",12.9,13.4,12.6
"2020/04/20",12.9,13.1,12.8
"2020/04/21",12.8,13.1,12.7
"2020/04/22",13.3,13.6,13.1
"2020/04/23",13.3,13.5,13.1
"2020/04/24",13.3,13.6,12.9
"2020/04/25",13.3,13.7,13.0
"2020/04/26",13.9,14.3,13.7
"2020/04/27",14.0,14.3,13.9
"2020/04/28",14.1,14.7,13.8
"2020/04/29",14.5,14.7,14.4
"2020/04/30",14.7,15.3,14.3
"2020/05/01",15.4,15.7,15.2
"2020/05/02",15.7,15.8,15.7
"2020/05/03",15.9,16.4,15.8
"2020/05/04",16.5,16.7,16.4
"2020/05/05",17.0,17.7,16.7
"2020/05/06",17.6,17.7,17.5
"2020/05/07",17.6,17.8,17.4
"2020/05/08",17.7,18.0,17.4
"2020/05/09",17.9,18.1,17.7
"2020/05/10",18.1,18.4,18.0
"2020/05/11",18.6,19.0,18.4
"2020/05/12",19.1,19.3,18.9
"2020/05/13",19.5,20.0,19.1
"2020/05/14",19.7,19.9,19.5
"2020/05/15",19.5,19.7,19.3
"2020/05/16",19.5,19.6,19.3
"2020/05/17",19.7,20.6,19.3
"2020/05/18",20.4,20.7,20.2
"2020/05/19",20.0,20.2,19.7
"2020/05/20",18.9,19.7,18.5
"2020/05/21",17.9,18.5,17.6
"2020/05/22",17.7,17.9,17.5
"2020/05/23",17.7,18.0,17.5
"2020/05/24",18.2,18.7,17.9
"2020/05/25",18.6,18.7,18.5
"2020/05/26",18.8,19.1,18.6
"2020/05/27",19.4,19.9,19.1
"2020/05/28",19.8,20.1,19.7
"2020/05/29",20.0,20.8,19.6
"2020/05/30",20.9,21.3,20.7
"2020/05/31",20.7,20.9,20.5
"2020/06/01",20.7,20.8,20.6
"2020/06/02",20.8,21.2,20.6
"2020/06/03",21.3,21.5,21.1
"2020/06/04",21.6,22.0,21.5
"2020/06/05",22.0,22.4,21.8
"2020/06/06",22.6,22.9,22.4
"2020/06/07",22.6,22.9,22.4
"2020/06/08",22.6,22.9,22.3
"2020/06/09",22.8,22.9,22.7
"2020/06/10",22.9,23.5,22.6
"2020/06/11",23.5,23.7,23.3
"2020/06/12",23.9,24.6,23.6
"2020/06/13",24.3,24.6,23.8
"2020/06/14",23.6,23.8,23.6
"2020/06/15",23.8,24.3,23.5
"2020/06/16",24.2,24.4,23.9
"2020/06/17",23.8,24.2,23.4
"2020/06/18",24.1,24.2,23.9
"2020/06/19",23.8,24.2,23.3
"2020/06/20",22.9,23.5,22.5
"2020/06/21",23.4,23.6,23.3
"2020/06/22",22.9,23.4,22.4
"2020/06/23"," *"," *"," *"
"2020/06/24"," *"," *"," *"
"2020/06/25",21.9,22.2,21.8
"2020/06/26",21.8,21.9,21.7
"2020/06/27",22.2,22.5,21.9
"2020/06/28",22.5,22.6,22.4
"2020/06/29",22.5,23.0,22.3
"2020/06/30",23.1,23.4,22.9
"2020/07/01",23.5,23.5,23.4
"2020/07/02",23.4,23.7,23.3
"2020/07/03",23.8,23.9,23.6
"2020/07/04",23.6,23.8,23.5
"2020/07/05",23.7,23.7,23.6
"2020/07/06",23.6,23.7,23.5
"2020/07/07",23.8,24.1,23.7
"2020/07/08",24.2,24.3,24.1
"2020/07/09",24.3,24.3,24.2
"2020/07/10",24.2,24.3,24.1
"2020/07/11",24.5,24.7,24.3
"2020/07/12",24.8,25.0,24.7
"2020/07/13",24.4,24.8,24.2
"2020/07/14",24.2,24.4,24.0
"2020/07/15",23.8,24.0,23.5
"2020/07/16",23.3,23.5,23.1
"2020/07/17",23.1,23.4,22.9
"2020/07/18",22.6,22.9,22.5
"2020/07/19",22.6,22.7,22.5
"2020/07/20",22.8,23.2,22.6
"2020/07/21",23.2,23.5,23.1
"2020/07/22",23.4,23.5,23.3
"2020/07/23",23.5,23.5,23.4
"2020/07/24",23.6,23.8,23.5
"2020/07/25",23.7,23.8,23.7
"2020/07/26",23.8,23.9,23.8
"2020/07/27",23.9,24.0,23.8
"2020/07/28",24.2,24.6,24.0
"2020/07/29",24.6,24.7,24.5
"2020/07/30",24.3,24.5,24.1
"2020/07/31",24.5,24.7,24.4
"2020/08/01",24.9,25.2,24.6
"2020/08/02",25.2,25.5,24.9
"2020/08/03",25.6,26.0,25.3
"2020/08/04",26.0,26.2,25.7
"2020/08/05",26.2,26.4,26.1
"2020/08/06",26.5,26.7,26.3
"2020/08/07",26.6,26.7,26.5
"2020/08/08",26.5,26.7,26.3
"2020/08/09",26.5,26.7,26.4
"2020/08/10",26.8,27.3,26.6
"2020/08/11",27.2,27.5,27.1
"2020/08/12",27.7,28.2,27.4
"2020/08/13",28.5,29.0,28.2
"2020/08/14",28.8,29.0,28.6
"2020/08/15",28.9,29.4,28.7
"2020/08/16",29.3,29.4,29.2
"2020/08/17",29.1,29.2,28.9
"2020/08/18",29.3,29.5,29.2
"2020/08/19",29.3,29.7,29.0
"2020/08/20",29.3,29.5,29.1
"2020/08/21",29.3,29.7,29.0
"2020/08/22",29.5,29.8,29.3
"2020/08/23",29.3,29.8,29.1
"2020/08/24",28.9,29.1,28.7
"2020/08/25",28.8,29.0,28.5
"2020/08/26",29.1,29.4,28.8
"2020/08/27",29.3,29.4,29.1
"2020/08/28",29.3,29.4,29.2
"2020/08/29",29.3,29.4,29.2
"2020/08/30",29.2,29.5,29.1
"2020/08/31",29.1,29.4,28.7
"2020/09/01",28.1,28.7,27.8
"2020/09/02",27.8,28.0,27.6
"2020/09/03",28.0,28.3,27.9
"2020/09/04",28.5,29.2,28.1
"2020/09/05",28.9,29.1,28.8
"2020/09/06",28.5,29.0,28.3
"2020/09/07",28.3,28.5,28.1
"2020/09/08",28.3,28.4,28.1
"2020/09/09",28.4,28.9,28.1
"2020/09/10",28.7,28.8,28.6
"2020/09/11",28.5,28.7,28.3
"2020/09/12",28.2,28.5,27.8
"2020/09/13",27.4,27.8,27.2
"2020/09/14",27.0,27.2,26.8
"2020/09/15",26.6,26.8,26.5
"2020/09/16",26.4,26.6,26.1
"2020/09/17",26.5,26.8,26.3
"2020/09/18",26.7,26.8,26.6
"2020/09/19",26.4,26.8,26.0
"2020/09/20",25.6,26.0,25.3
"2020/09/21",25.1,25.3,24.9
"2020/09/22",24.8,25.1,24.6
"2020/09/23",24.4,24.8,24.2
"2020/09/24",23.7,24.1,23.3
"2020/09/25",23.1,23.3,23.0
"2020/09/26",22.8,23.0,22.6
"2020/09/27",22.4,22.6,22.1
"2020/09/28",22.6,22.8,22.4
"2020/09/29",22.6,22.8,22.3
"2020/09/30",21.8,22.3,21.4
"2020/10/01",21.7,22.0,21.6
"2020/10/02"," *"," *"," *"
"2020/10/03",21.9,22.1,21.8
"2020/10/04",22.0,22.1,21.9
"2020/10/05",22.0,22.1,21.9
"2020/10/06",21.7,21.9,21.6
"2020/10/07",21.4,21.8,21.2
"2020/10/08",20.7,21.2,20.2
"2020/10/09",19.9,20.2,19.8
"2020/10/10",19.7,19.8,19.6
"2020/10/11",19.9,20.2,19.7
"2020/10/12",20.2,20.3,20.1
"2020/10/13",20.4,20.7,20.3
"2020/10/14",20.5,20.6,20.5
"2020/10/15",20.3,20.5,19.9
"2020/10/16",19.3,19.9,19.0
"2020/10/17",18.5,19.0,18.0
"2020/10/18",17.9,18.3,17.7
"2020/10/19",18.2,18.3,18.1
"2020/10/20",18.2,18.3,18.1
"2020/10/21",18.0,18.2,17.8
"2020/10/22",18.0,18.2,17.8
"2020/10/23",18.3,18.4,18.2
"2020/10/24",18.3,18.4,18.2
"2020/10/25",18.3,18.4,18.1
"2020/10/26",18.3,18.6,18.0
"2020/10/27",18.3,18.6,18.1
"2020/10/28",17.9,18.2,17.7
"2020/10/29",18.0,18.2,17.9
"2020/10/30",17.8,18.2,17.6
"2020/10/31",17.2,17.6,17.0
"2020/11/01",17.1,17.3,16.9
"2020/11/02",17.2,17.3,17.2
"2020/11/03",17.2,17.3,17.2
"2020/11/04",16.9,17.2,16.7
"2020/11/05",16.4,16.6,16.3
"2020/11/06",16.5,16.6,16.4
"2020/11/07",16.3,16.4,16.2
"2020/11/08",16.6,16.8,16.4
"2020/11/09",16.7,16.9,16.4
"2020/11/10",15.9,16.4,15.7
"2020/11/11"," *"," *"," *"
"2020/11/12"," *"," *"," *"
"2020/11/13"," *"," *"," *"
"2020/11/14"," *"," *"," *"
"2020/11/15"," *"," *"," *"
"2020/11/16"," *"," *"," *"
"2020/11/17"," *"," *"," *"
"2020/11/18"," *"," *"," *"
"2020/11/19"," *"," *"," *"
"2020/11/20",15.8,16.1,15.6
"2020/11/21",16.1,16.1,16.0
"2020/11/22",15.7,16.0,15.6
"2020/11/23",15.7,15.8,15.6
"2020/11/24",15.3,15.6,15.0
"2020/11/25",14.6,15.0,14.3
"2020/11/26",14.4,14.8,14.2
"2020/11/27",14.6,14.8,14.4
"2020/11/28",14.2,14.4,14.1
"2020/11/29",13.7,14.1,13.5
"2020/11/30",13.6,13.8,13.4
"2020/12/01",13.5,13.7,13.3
"2020/12/02",13.1,13.5,12.7
"2020/12/03",12.4,12.7,12.3
"2020/12/04",12.3,12.5,12.1
"2020/12/05",12.0,12.5,11.6
"2020/12/06",11.6,11.7,11.5
"2020/12/07",11.7,11.9,11.5
"2020/12/08",11.9,12.1,11.8
"2020/12/09",11.9,12.1,11.8
"2020/12/10",11.6,11.8,11.4
"2020/12/11",11.3,11.5,11.1
"2020/12/12",11.7,11.8,11.5
"2020/12/13",11.7,11.8,11.5
"2020/12/14"," *"," *"," *"
"2020/12/15"," *"," *"," *"
"2020/12/16", 9.9,10.4, 9.6
"2020/12/17", 9.1, 9.6, 8.8
"2020/12/18", 8.6, 8.9, 8.4
"2020/12/19", 8.7, 8.9, 8.6
"2020/12/20", 8.3, 8.6, 8.0
"2020/12/21", 7.7, 8.0, 7.5
"2020/12/22", 7.7, 7.8, 7.5
"2020/12/23", 7.9, 8.1, 7.8
"2020/12/24", 8.1, 8.1, 8.0
"2020/12/25", 8.1, 8.2, 8.0
"2020/12/26", 8.0, 8.2, 7.9
"2020/12/27", 8.0, 8.1, 7.9
"2020/12/28", 8.2, 8.3, 8.1
"2020/12/29", 8.2, 8.3, 8.2
"2020/12/30", 8.3, 8.3, 8.2
